CW1492 Weather Reports


Display with metric or nautical units.
time (UTC)temp
F
wind
direction
speed
MPH
gust
MPH
rain 1hr
in
rain 24hr
in
rain mn
in
humidity
%
barometer
mb
20260503054901 39 326 0.0 1.0 0.00 0.29 0.00 83 1009.7
20260503054836 40 359 1.0 2.0 0.00 0.26 0.00 50 1011.2
20260503053341 41 345 1.0 2.0 0.00 0.26 0.00 48 1011.3
20260503051911 41 345 0.0 4.0 0.00 0.26 0.00 45 1011.6
20260503051838 39 326 0.0 1.0 0.00 0.30 0.00 85 1010.0
20260503050414 41 346 2.0 7.0 0.00 0.26 0.00 45 1011.7
20260503050318 38 318 0.0 1.0 0.00 0.30 0.00 88 1010.1
20260503044835 41 47 0.0 0.0 0.00 0.26 0.00 45 1012.0
20260503044817 38 318 0.0 2.0 0.00 0.30 0.00 87 1010.4
20260503043344 41 42 2.0 3.0 0.00 0.26 0.00 45 1012.1
20260503043340 38 318 1.0 2.0 0.00 0.30 0.00 86 1010.5
20260503041850 38 318 1.0 2.0 0.00 0.30 0.30 85 1010.7
20260503041846 41 43 1.0 3.0 0.00 0.26 0.00 47 1012.2
20260503040353 41 355 1.0 4.0 0.00 0.26 0.00 44 1012.4
20260503040314 38 318 0.0 2.0 0.00 0.30 0.30 84 1010.9
20260503034912 42 357 0.0 1.0 0.00 0.26 0.26 44 1012.5
20260503034814 39 318 1.0 1.0 0.00 0.30 0.30 82 1010.9
20260503033405 43 12 1.0 3.0 0.00 0.26 0.26 42 1012.4
20260503033336 39 318 0.0 1.0 0.00 0.30 0.30 82 1010.9
20260503031852 43 53 2.0 6.0 0.00 0.26 0.26 41 1012.5
20260503031816 40 318 1.0 2.0 0.00 0.30 0.30 78 1011.0
20260503030422 43 14 3.0 4.0 0.00 0.26 0.26 42 1012.5
20260503030316 41 319 1.0 2.0 0.00 0.30 0.30 76 1011.0
20260503024838 44 322 1.0 4.0 0.00 0.26 0.26 42 1012.6
20260503024817 43 319 0.0 2.0 0.00 0.30 0.30 73 1011.0
20260503023404 44 310 0.0 1.0 0.00 0.30 0.30 72 1011.0
20260503023350 44 322 1.0 3.0 0.00 0.26 0.26 42 1012.5
20260503021934 45 334 0.0 2.0 0.00 0.26 0.26 41 1012.6
20260503021830 44 323 2.0 3.0 0.00 0.30 0.30 64 1011.0
20260503020339 45 308 1.0 4.0 0.00 0.26 0.26 39 1012.7
20260503020316 43 333 1.0 3.0 0.00 0.30 0.30 69 1011.1
20260503014902 46 320 1.0 8.0 0.00 0.26 0.26 38 1012.8
20260503014841 42 321 1.0 2.0 0.00 0.30 0.30 81 1011.3
20260503013353 46 325 0.0 3.0 0.00 0.26 0.26 38 1012.7
20260503013326 42 321 1.0 2.0 0.00 0.30 0.30 78 1011.1
20260503011902 46 301 1.0 7.0 0.00 0.26 0.26 38 1012.7
20260503011843 43 323 0.0 1.0 0.00 0.30 0.30 80 1011.1
20260503010402 47 245 2.0 7.0 0.00 0.26 0.26 38 1012.5
20260503010345 44 323 0.0 2.0 0.00 0.30 0.30 74 1010.8
20260503004913 47 293 1.0 6.0 0.00 0.26 0.26 37 1012.4
20260503004829 44 309 1.0 3.0 0.00 0.30 0.30 74 1010.7
20260503003418 47 287 0.0 3.0 0.00 0.26 0.26 37 1012.4
20260503003319 46 296 0.0 1.0 0.00 0.30 0.30 72 1010.7
20260503001929 48 299 2.0 5.0 0.00 0.26 0.26 36 1012.2
20260503001843 47 291 1.0 2.0 0.00 0.30 0.30 63 1010.5
20260503000331 49 327 1.0 5.0 0.00 0.26 0.26 37 1011.9
20260503000325 49 338 0.0 4.0 0.00 0.30 0.30 60 1010.4
20260502234854 50 278 3.0 6.0 0.00 0.26 0.26 34 1011.8
20260502234850 50 306 1.0 4.0 0.00 0.30 0.30 56 1010.2
20260502233432 51 289 4.0 10.0 0.00 0.26 0.26 32 1011.6
20260502233358 51 315 2.0 5.0 0.00 0.30 0.30 52 1010.1
20260502233316 51 315 2.0 5.0 0.00 0.30 0.30 52 1010.1
20260502231841 51 315 2.0 10.0 0.00 0.30 0.30 50 1009.9
20260502231825 53 254 5.0 11.0 0.00 0.26 0.26 31 1011.4
20260502230344 54 304 4.0 13.0 0.00 0.26 0.26 30 1011.3
20260502230323 51 273 2.0 5.0 0.00 0.30 0.30 53 1009.8
20260502224937 53 226 3.0 9.0 0.00 0.26 0.26 30 1011.1
20260502224825 51 329 2.0 6.0 0.00 0.30 0.30 52 1009.7
20260502223409 52 276 3.0 9.0 0.00 0.26 0.26 32 1011.1
20260502223352 51 322 1.0 2.0 0.00 0.30 0.30 64 1009.5
20260502221852 52 273 4.0 7.0 0.00 0.26 0.26 31 1011.0
20260502221816 51 283 2.0 4.0 0.00 0.30 0.30 63 1009.5
20260502220352 52 247 4.0 10.0 0.00 0.26 0.26 35 1010.8
20260502220320 52 291 0.0 2.0 0.00 0.30 0.30 75 1009.4
20260502214901 53 287 2.0 9.0 0.00 0.26 0.26 38 1010.8
20260502214825 52 265 1.0 2.0 0.00 0.30 0.30 63 1009.2
20260502213349 53 264 4.0 7.0 0.00 0.26 0.26 36 1010.8
20260502213329 53 282 1.0 2.0 0.00 0.30 0.30 62 1009.2
20260502211941 54 209 4.0 7.0 0.00 0.26 0.26 39 1010.6
20260502211835 53 334 0.0 4.0 0.00 0.30 0.30 65 1009.1
20260502210414 54 282 4.0 12.0 0.00 0.26 0.26 38 1010.6
20260502210321 53 30 0.0 1.0 0.00 0.30 0.30 71 1008.9
20260502204855 53 262 3.0 8.0 0.00 0.26 0.26 40 1010.6
20260502204820 53 279 0.0 1.0 0.00 0.30 0.30 69 1009.1
20260502203346 53 307 3.0 8.0 0.00 0.26 0.26 42 1010.7
20260502203327 53 5 1.0 3.0 0.00 0.30 0.30 68 1009.2
20260502201910 54 240 3.0 8.0 0.00 0.26 0.26 42 1010.7
20260502201832 54 318 1.0 3.0 0.00 0.30 0.30 67 1009.1
20260502200445 54 240 5.0 10.0 0.00 0.26 0.26 42 1010.6
20260502200402 54 240 5.0 10.0 0.00 0.26 0.26 42 1010.6
20260502200336 54 346 3.0 4.0 0.00 0.30 0.30 69 1009.0
20260502194846 54 191 4.0 8.0 0.00 0.26 0.26 44 1010.7
20260502194817 55 360 1.0 3.0 0.00 0.30 0.30 71 1009.1
20260502193417 55 230 4.0 8.0 0.00 0.26 0.26 44 1010.8
20260502193323 55 280 2.0 5.0 0.00 0.30 0.30 66 1009.2
20260502191900 55 291 3.0 7.0 0.00 0.26 0.26 43 1010.7
20260502191848 56 293 2.0 5.0 0.00 0.30 0.30 61 1009.2
20260502190351 55 334 5.0 9.0 0.00 0.26 0.26 47 1010.8
20260502190324 55 226 2.0 8.0 0.00 0.30 0.30 67 1009.3
20260502184853 56 231 3.0 7.0 0.00 0.26 0.26 50 1010.8
20260502184821 53 134 6.0 11.0 0.00 0.30 0.30 73 1009.3
20260502183332 55 304 2.0 7.0 0.00 0.26 0.26 61 1010.9
20260502183328 52 140 3.0 6.0 0.00 0.30 0.30 79 1009.5
20260502181900 53 222 2.0 7.0 0.00 0.26 0.26 72 1011.1
20260502181816 52 142 4.0 8.0 0.00 0.30 0.30 87 1009.7
20260502180430 52 126 3.0 9.0 0.00 0.26 0.26 73 1011.3
20260502180401 50 147 5.0 8.0 0.00 0.30 0.30 87 1010.0
20260502180327 52 126 3.0 9.0 0.00 0.26 0.26 73 1011.3
20260502170414 50 155 4.0 5.0 0.00 0.30 0.30 83 1010.0
20260502170328 52 111 2.0 5.0 0.00 0.26 0.26 73 1011.4
20260502163424 49 149 3.0 4.0 0.00 0.30 0.30 89 1010.2
20260502163337 51 228 1.0 4.0 0.00 0.26 0.26 78 1011.7
20260502161900 48 149 3.0 6.0 0.00 0.30 0.30 88 1010.2
20260502161825 51 272 2.0 3.0 0.00 0.26 0.26 82 1011.7
20260502160432 50 255 1.0 4.0 0.00 0.26 0.26 79 1011.8
20260502160324 48 153 2.0 3.0 0.01 0.30 0.30 90 1010.3
20260502151838 47 35 2.0 3.0 0.03 0.26 0.26 86 1012.3
20260502151827 48 80 0.0 2.0 0.02 0.30 0.30 96 1010.7
20260502150354 47 74 1.0 3.0 0.03 0.26 0.26 87 1012.4
20260502150352 47 30 0.0 1.0 0.01 0.29 0.29 95 1010.8
20260502130359 45 149 1.0 3.0 0.00 0.23 0.23 88 1012.7
20260502130352 45 151 3.0 6.0 0.01 0.28 0.28 94 1011.3
20260502123329 45 249 2.0 5.0 0.01 0.23 0.23 88 1012.8
20260502123316 45 151 7.0 9.0 0.01 0.28 0.28 94 1011.3
20260502121850 44 216 0.0 0.0 0.01 0.23 0.23 89 1012.8
20260502121816 45 163 4.0 7.0 0.01 0.28 0.28 94 1011.3
20260502120426 45 161 5.0 8.0 0.01 0.27 0.27 95 1011.4
20260502120332 44 291 0.0 0.0 0.01 0.23 0.23 88 1012.8
20260502114904 45 142 3.0 6.0 0.02 0.27 0.27 95 1011.0
20260502114834 44 246 0.0 0.0 0.02 0.23 0.23 88 1012.6
20260502113412 44 214 0.0 0.0 0.01 0.22 0.22 89 1012.7
20260502113342 45 138 3.0 5.0 0.03 0.27 0.27 95 1011.4
20260502111854 43 214 0.0 0.0 0.01 0.22 0.22 88 1012.6
20260502111851 45 144 0.0 4.0 0.03 0.27 0.27 96 1011.2
20260502110452 43 214 0.0 0.0 0.01 0.22 0.22 88 1012.8
20260502110328 44 132 0.0 2.0 0.02 0.26 0.26 96 1011.1
20260502104855 44 69 0.0 1.0 0.01 0.25 0.25 95 1010.9
20260502104853 43 217 0.0 0.0 0.00 0.21 0.21 88 1012.6
20260502103357 43 217 0.0 2.0 0.00 0.21 0.21 88 1012.3
20260502103335 44 119 0.0 7.0 0.00 0.24 0.24 95 1010.7
20260502100410 43 14 0.0 2.0 0.01 0.21 0.21 87 1012.1
20260502100341 44 154 3.0 6.0 0.02 0.24 0.24 96 1010.5
20260502090417 43 113 1.0 2.0 0.10 0.22 0.22 96 1011.0
20260502090331 43 66 5.0 6.0 0.08 0.20 0.20 88 1012.4
20260502090313 43 113 1.0 2.0 0.10 0.22 0.22 96 1011.0
20260502070358 44 306 0.0 2.0 0.06 0.07 0.07 95 1011.1
20260502070329 44 276 2.0 4.0 0.06 0.08 0.08 81 1012.6
20260502064835 44 334 0.0 2.0 0.05 0.06 0.06 95 1011.3
20260502064829 44 75 1.0 2.0 0.06 0.07 0.07 76 1012.6
20260502063407 44 75 0.0 3.0 0.05 0.06 0.06 73 1012.7
20260502063400 44 290 0.0 2.0 0.04 0.05 0.05 94 1011.4
20260502061841 44 62 2.0 4.0 0.03 0.04 0.04 71 1012.8
20260502061836 44 5 1.0 1.0 0.01 0.02 0.02 94 1011.7
20260502060409 44 62 2.0 4.0 0.02 0.02 0.02 70 1013.0
20260502060357 44 34 1.0 3.0 0.01 0.01 0.01 93 1011.7
20260502060315 44 34 1.0 3.0 0.01 0.01 0.01 93 1011.7